Regional Weather Roundup
Issued by NWS Kansas City/Pleasant Hill, MO

Home | Current Version | Previous Version | Text Only | Print | Product List | Glossary On
Versions: 1 2 3 4 5 6 7 8 9 10 11 12 13 14 15 16 17 18 19 20 21 22 23 24 25 26 27 28 29 30 31 32 33 34 35 36 37 38 39 40 41 42 43 44 45 46 47 48 49 50
000
ASUS43 KEAX 011304
RWREAX

WEATHER ROUNDUP FOR EASTERN KANSAS AND NORTHWEST MISSOURI
NATIONAL WEATHER SERVICE KANSAS CITY/PLEASANT HILL MO
800 AM CDT WED OCT 01 2014

KSZ040-057-103>105-MOZ028-029-037-043-011400-
...KANSAS CITY METROPOLITAN AREA...

CITY           SKY/WX    TMP DP  RH WIND       PRES   REMARKS
K.C. INTL      CLOUDY    65  64  97 SE10      29.78S
K.C. DOWNTOWN  MOCLDY    68  64  87 E5        29.78R
LEES SUMMIT    MOCLDY    65  62  90 VRB5      29.80R
OLATHE - IXD   PTCLDY    66  61  84 SW6       29.79R
OLATHE - OJC   PTCLDY    67  61  81 CALM      29.78R
LAWRENCE       MOCLDY    65  62  90 E9        29.76R FOG

$$

MOZ001>008-011>017-020>025-030>033-038>040-044>046-053-054-011400-
...NORTHERN AND CENTRAL MISSOURI...

CITY           SKY/WX    TMP DP  RH WIND       PRES   REMARKS
ST. JOSEPH     CLOUDY    65  63  93 SE9       29.77R
MOSBY          CLOUDY    64  64 100 E6        29.79S THUNDER
WHITEMAN AFB   PTCLDY    64  59  82 S10       29.79S
CLINTON        CLOUDY    68  61  77 S8        29.81R HAZE
SEDALIA        TSTM      67  60  78 SE13      29.82R
WARSAW         NOT AVBL
MARSHALL       MOCLDY    68  59  73 SE7       29.81F
CHILLICOTHE      N/A     64  62  93 E8        29.82F
MOBERLY        CLOUDY    64  55  72 SE8       29.84F
KIRKSVILLE     CLOUDY    62  59  90 E6        29.86S FOG

$$

MOZ041-047>049-056>058-063>065-088>090-097-011400-
...EASTERN AND SOUTHERN MISSOURI...

CITY           SKY/WX    TMP DP  RH WIND       PRES   REMARKS
ST. LOUIS INTL MOSUNNY   64  60  87 E8        29.92R
SPIRIT OF STL  SUNNY     64  59  83 CALM      29.90R
COLUMBIA       PTCLDY    62  56  80 SE9       29.85S
JEFFERSON CITY PTCLDY    64  56  75 SE6       29.85S
MEXICO         PTSUNNY  N/A N/A N/A SE7       29.87S
ROLLA          CLOUDY    63  54  72 S7        29.88R
OSAGE BEACH    PTCLDY    64  54  68 SE3       29.86R
SPRINGFIELD    CLEAR     66  57  72 S13       29.85R
NEVADA         MOCLDY    68  61  77 S8        29.82R HAZE
JOPLIN         CLOUDY    71  60  68 S13       29.82R
WEST PLAINS    MOSUNNY   62  55  77 SE3       29.92R

$$

IAZ060-094-KSZ022-034>040-054-083-096-NEZ052-066-093-011400-
...KANSAS...SOUTHEAST NEBRASKA AND IOWA...

CITY           SKY/WX    TMP DP  RH WIND       PRES   REMARKS
TOPEKA         MOCLDY    67  65  93 E5        29.75R
MANHATTAN      CLEAR     67  65  93 SW8       29.72R
EMPORIA        PTCLDY    67  64  90 S9        29.75R
CHANUTE        CLOUDY    71  63  75 S12       29.78R
WICHITA        PTCLDY    69  64  84 SE7       29.74R
OMAHA          LGT RAIN  62  59  90 SE3       29.73S
LINCOLN        CLOUDY    63  60  90 SE6       29.74R
FALLS CITY     CLOUDY    65  63  93 SE6       29.73R
LAMONI         LGT RAIN  63  61  93 SE12      29.79R
DES MOINES     LGT RAIN  60  57  89 SE9G20    29.79R

$$




USA.gov is the U.S. government's official web portal to all federal, state and local government web resources and services.